Voltar ao catálogo

STARLINK-36513

AtivoComunicaçõesVLEO
NORAD 67429·PAYLOAD·🇺🇸 United States

Lançado Jan 12, 2026 de Cape Canaveral Space Force Station

Loading…

Próximas Passagens (próximas 24 horas)

TLE

AtualizadoSource: CelesTrak SupGP

Época: Sep 14, 2026, 21:03 UTC

1 67429C 26005AB  26257.87756944  .00037227  00000+0  13489-2 0  2577
2 67429  43.0015 249.4058 0001309 261.3833  35.5756 15.27547441    16

Acompanhe STARLINK-36513 em tempo real com AllMySat

Download on the App Store